N23959 KMSN-

Flight info

Callsign N23959
Flight time N/A
Altitude VFR
Route VFR NW FF
Aircraft C182/L-VGD/C

Departure

Time 2026-04-26 19:32
Airport Dane County Regional Truax Field (KMSN)

Arrival

Time N/A
Airport -
Time Latitude Longitude Altitude Speed Heading
2026-04-26 19:23 43.13435 -89.32834 863 ft 0 kts 48°
2026-04-26 19:25 43.13449 -89.32818 854 ft 10 kts 33°
2026-04-26 19:25 43.13566 -89.32758 853 ft 17 kts 52°
2026-04-26 19:25 43.13642 -89.32648 859 ft 15 kts 47°
2026-04-26 19:26 43.13725 -89.32607 862 ft 14 kts 319°
2026-04-26 19:26 43.13796 -89.32700 863 ft 15 kts 316°
2026-04-26 19:26 43.13883 -89.32770 858 ft 14 kts 321°
2026-04-26 19:26 43.13951 -89.32861 866 ft 14 kts 319°
2026-04-26 19:27 43.14025 -89.32951 857 ft 15 kts 320°
2026-04-26 19:27 43.14102 -89.33056 866 ft 16 kts 317°
2026-04-26 19:27 43.14189 -89.33165 864 ft 18 kts 319°
2026-04-26 19:27 43.14280 -89.33284 864 ft 15 kts 317°
2026-04-26 19:28 43.14305 -89.33317 864 ft 0 kts 320°
2026-04-26 19:28 43.14305 -89.33318 864 ft 1 kts 317°
2026-04-26 19:28 43.14345 -89.33369 864 ft 16 kts 316°
2026-04-26 19:29 43.14454 -89.33512 863 ft 23 kts 317°
2026-04-26 19:29 43.14563 -89.33654 858 ft 21 kts 317°
2026-04-26 19:29 43.14676 -89.33800 865 ft 23 kts 319°
2026-04-26 19:29 43.14761 -89.33877 863 ft 15 kts 266°
2026-04-26 19:30 43.14733 -89.33934 860 ft 0 kts 224°
2026-04-26 19:30 43.14728 -89.33940 854 ft 7 kts 221°
2026-04-26 19:31 43.14605 -89.33914 866 ft 36 kts 136°
2026-04-26 19:31 43.14305 -89.33523 902 ft 77 kts 135°
2026-04-26 19:31 43.13892 -89.32995 1142 ft 83 kts 136°
2026-04-26 19:31 43.13466 -89.32423 1453 ft 88 kts 134°
2026-04-26 19:32 43.13146 -89.31741 1845 ft 85 kts 94°
2026-04-26 19:32 43.13539 -89.31123 1946 ft 113 kts 15°
2026-04-26 19:32 43.14322 -89.31555 2009 ft 132 kts 318°
2026-04-26 19:32 43.14982 -89.32519 2053 ft 143 kts 314°
2026-04-26 19:33 43.15613 -89.33581 2240 ft 143 kts 311°
2026-04-26 19:33 43.16225 -89.34677 2349 ft 144 kts 310°
2026-04-26 19:33 43.16803 -89.35778 2583 ft 140 kts 307°
2026-04-26 19:33 43.17314 -89.36874 2791 ft 140 kts 302°
2026-04-26 19:34 43.17838 -89.38026 2966 ft 141 kts 304°
2026-04-26 19:34 43.18404 -89.39125 3307 ft 137 kts 308°
2026-04-26 19:34 43.19010 -89.40167 3424 ft 149 kts 308°
2026-04-26 19:34 43.19694 -89.41264 3581 ft 152 kts 311°
2026-04-26 19:35 43.20374 -89.42404 3668 ft 156 kts 307°
2026-04-26 19:35 43.21043 -89.43587 3793 ft 157 kts 306°
2026-04-26 19:35 43.21698 -89.44776 3607 ft 159 kts 305°
2026-04-26 19:35 43.22337 -89.46003 3461 ft 158 kts 302°
2026-04-26 19:36 43.22977 -89.47227 3410 ft 156 kts 306°
2026-04-26 19:36 43.23402 -89.48027 3315 ft 157 kts 305°
2026-04-26 19:36 43.24220 -89.49693 3274 ft 145 kts 302°
2026-04-26 19:36 43.24762 -89.50890 3119 ft 152 kts 303°
2026-04-26 19:37 43.25350 -89.52127 3088 ft 153 kts 302°
2026-04-26 19:37 43.25904 -89.53321 3120 ft 144 kts 304°
2026-04-26 19:37 43.26441 -89.54469 2995 ft 143 kts 302°
2026-04-26 19:37 43.26965 -89.55623 2894 ft 145 kts 302°
2026-04-26 19:38 43.27504 -89.56745 2800 ft 139 kts 305°
2026-04-26 19:38 43.28026 -89.57845 2760 ft 138 kts 303°
2026-04-26 19:38 43.28547 -89.58999 2757 ft 145 kts 303°
2026-04-26 19:38 43.29065 -89.60131 2652 ft 135 kts 303°
2026-04-26 19:39 43.29563 -89.61220 2511 ft 137 kts 302°
2026-04-26 19:39 43.29705 -89.62453 2505 ft 126 kts 265°
2026-04-26 19:39 43.29693 -89.63704 2490 ft 131 kts 268°
2026-04-26 19:39 43.29688 -89.64990 2460 ft 140 kts 266°
2026-04-26 19:40 43.29677 -89.66281 2492 ft 132 kts 267°
2026-04-26 19:40 43.29691 -89.67540 2474 ft 132 kts 266°
2026-04-26 19:40 43.29712 -89.68781 2499 ft 133 kts 266°
2026-04-26 19:40 43.29723 -89.70126 2504 ft 148 kts 268°
2026-04-26 19:41 43.29695 -89.71581 2513 ft 157 kts 260°
2026-04-26 19:41 43.29565 -89.73105 2515 ft 165 kts 262°
2026-04-26 19:41 43.29496 -89.74691 2502 ft 165 kts 264°
2026-04-26 19:41 43.29472 -89.75222 2504 ft 164 kts 264°
2026-04-26 19:42 43.29365 -89.77765 2497 ft 152 kts 266°
2026-04-26 19:42 43.29287 -89.79222 2500 ft 154 kts 263°
2026-04-26 19:42 43.29214 -89.80698 2504 ft 153 kts 264°
2026-04-26 19:42 43.29165 -89.82169 2510 ft 152 kts 265°
2026-04-26 19:43 43.29092 -89.83612 2514 ft 149 kts 265°
2026-04-26 19:43 43.29018 -89.85036 2482 ft 149 kts 264°
2026-04-26 19:43 43.28959 -89.86452 2478 ft 148 kts 264°
2026-04-26 19:43 43.28887 -89.87880 2473 ft 150 kts 263°
2026-04-26 19:44 43.28830 -89.89291 2469 ft 146 kts 264°
2026-04-26 19:44 43.28777 -89.90675 2473 ft 146 kts 265°
2026-04-26 19:44 43.28718 -89.92081 2473 ft 151 kts 264°
2026-04-26 19:44 43.28645 -89.93529 2476 ft 152 kts 264°
2026-04-26 19:45 43.28574 -89.94967 2473 ft 150 kts 263°
2026-04-26 19:45 43.28525 -89.96388 2463 ft 147 kts 264°
2026-04-26 19:45 43.28475 -89.97800 2467 ft 148 kts 265°
2026-04-26 19:45 43.28400 -89.99223 2474 ft 151 kts 264°
2026-04-26 19:46 43.28343 -90.00647 2474 ft 148 kts 264°
2026-04-26 19:46 43.28285 -90.02053 2474 ft 146 kts 264°
2026-04-26 19:46 43.28225 -90.03457 2473 ft 148 kts 265°
2026-04-26 19:46 43.28166 -90.04852 2465 ft 148 kts 263°
2026-04-26 19:47 43.28166 -90.06259 2467 ft 147 kts 273°
2026-04-26 19:47 43.28211 -90.06733 2472 ft 148 kts 275°
2026-04-26 19:47 43.28873 -90.08914 2465 ft 152 kts 303°
2026-04-26 19:47 43.29455 -90.10133 2479 ft 154 kts 302°
2026-04-26 19:48 43.30051 -90.11371 2471 ft 155 kts 302°
2026-04-26 19:48 43.30651 -90.12601 2466 ft 157 kts 303°
2026-04-26 19:48 43.31249 -90.13837 2469 ft 155 kts 303°
2026-04-26 19:48 43.31818 -90.15078 2467 ft 152 kts 302°
2026-04-26 19:49 43.32362 -90.16301 2461 ft 148 kts 303°
2026-04-26 19:49 43.32892 -90.17494 2472 ft 146 kts 302°
2026-04-26 19:49 43.33422 -90.18681 2477 ft 148 kts 303°
2026-04-26 19:49 43.33960 -90.19880 2469 ft 147 kts 302°
2026-04-26 19:50 43.34496 -90.21066 2471 ft 147 kts 302°
2026-04-26 19:50 43.35040 -90.22258 2467 ft 147 kts 303°
2026-04-26 19:50 43.35495 -90.23502 2463 ft 146 kts 293°
2026-04-26 19:50 43.35761 -90.24339 2469 ft 144 kts 292°
2026-04-26 19:51 43.35882 -90.25690 2480 ft 142 kts 268°
2026-04-26 19:51 43.35914 -90.27068 2472 ft 145 kts 269°
2026-04-26 19:51 43.35979 -90.28481 2469 ft 152 kts 270°
2026-04-26 19:51 43.36054 -90.29919 2476 ft 150 kts 269°
2026-04-26 19:52 43.36129 -90.31366 2478 ft 153 kts 270°
2026-04-26 19:52 43.36182 -90.32819 2468 ft 151 kts 269°
2026-04-26 19:52 43.36237 -90.34238 2483 ft 149 kts 270°
2026-04-26 19:52 43.36266 -90.35648 2462 ft 142 kts 261°
2026-04-26 19:53 43.35950 -90.36849 2474 ft 130 kts 237°
2026-04-26 19:53 43.35551 -90.38007 2472 ft 135 kts 238°
2026-04-26 19:53 43.35140 -90.39179 2481 ft 140 kts 240°
2026-04-26 19:53 43.34626 -90.40308 2473 ft 140 kts 228°
2026-04-26 19:54 43.34091 -90.41428 2472 ft 139 kts 231°
2026-04-26 19:54 43.33561 -90.42557 2467 ft 142 kts 232°
2026-04-26 19:54 43.33053 -90.43681 2457 ft 135 kts 233°
2026-04-26 19:54 43.32545 -90.44754 2477 ft 135 kts 231°
2026-04-26 19:55 43.31976 -90.45794 2470 ft 139 kts 224°
2026-04-26 19:55 43.31361 -90.46831 2468 ft 139 kts 224°
2026-04-26 19:55 43.30756 -90.47856 2472 ft 138 kts 226°
2026-04-26 19:55 43.30135 -90.48868 2471 ft 138 kts 224°
2026-04-26 19:56 43.29526 -90.49897 2471 ft 142 kts 226°
2026-04-26 19:56 43.28902 -90.50944 2473 ft 141 kts 225°
2026-04-26 19:56 43.28276 -90.51994 2461 ft 144 kts 224°
2026-04-26 19:56 43.27638 -90.53069 2468 ft 146 kts 224°
2026-04-26 19:57 43.26996 -90.54142 2467 ft 145 kts 225°
2026-04-26 19:57 43.26357 -90.55193 2468 ft 144 kts 225°
2026-04-26 19:57 43.25712 -90.56234 2468 ft 143 kts 223°
2026-04-26 19:57 43.25087 -90.57288 2464 ft 142 kts 225°
2026-04-26 19:58 43.24473 -90.58337 2461 ft 140 kts 226°
2026-04-26 19:58 43.23858 -90.59355 2455 ft 138 kts 224°
2026-04-26 19:58 43.23286 -90.60355 2461 ft 130 kts 224°
2026-04-26 19:58 43.22721 -90.61343 2463 ft 132 kts 225°
2026-04-26 19:59 43.22136 -90.62338 2452 ft 134 kts 225°
2026-04-26 19:59 43.21549 -90.63314 2463 ft 133 kts 225°
2026-04-26 19:59 43.20963 -90.64317 2465 ft 136 kts 225°
2026-04-26 19:59 43.20374 -90.65317 2473 ft 136 kts 225°
2026-04-26 20:00 43.19884 -90.66464 2456 ft 143 kts 244°
2026-04-26 20:00 43.19607 -90.67770 2436 ft 143 kts 248°
2026-04-26 20:00 43.19340 -90.69100 2435 ft 145 kts 248°
2026-04-26 20:00 43.19072 -90.70412 2432 ft 145 kts 249°
2026-04-26 20:01 43.18709 -90.71674 2430 ft 140 kts 225°
2026-04-26 20:01 43.17893 -90.72185 2433 ft 129 kts 179°
2026-04-26 20:01 43.17002 -90.72223 2434 ft 127 kts 176°
2026-04-26 20:01 43.16109 -90.72265 2438 ft 131 kts 177°
2026-04-26 20:02 43.15204 -90.72298 2438 ft 129 kts 177°
2026-04-26 20:02 43.14305 -90.72340 2431 ft 127 kts 172°
2026-04-26 20:02 43.13615 -90.71718 2417 ft 124 kts 117°
2026-04-26 20:02 43.13526 -90.70943 2428 ft 128 kts 90°
2026-04-26 20:03 43.13968 -90.69342 2442 ft 138 kts 72°
2026-04-26 20:03 43.14460 -90.68194 2443 ft 143 kts 60°
2026-04-26 20:03 43.15031 -90.67056 2436 ft 148 kts 62°
2026-04-26 20:03 43.15608 -90.65921 2435 ft 138 kts 60°
2026-04-26 20:04 43.16129 -90.64836 2425 ft 135 kts 62°
2026-04-26 20:04 43.16657 -90.63807 2411 ft 132 kts 62°
2026-04-26 20:04 43.17164 -90.62823 2475 ft 129 kts 61°
2026-04-26 20:04 43.17730 -90.61726 2424 ft 147 kts 56°
2026-04-26 20:05 43.18297 -90.60622 2427 ft 140 kts 62°
2026-04-26 20:05 43.18724 -90.59487 2419 ft 128 kts 87°
2026-04-26 20:05 43.18664 -90.58315 2438 ft 123 kts 99°
2026-04-26 20:05 43.18601 -90.57102 2472 ft 139 kts 96°
2026-04-26 20:06 43.18495 -90.55683 2444 ft 155 kts 98°
2026-04-26 20:06 43.18372 -90.54230 2448 ft 143 kts 98°
2026-04-26 20:06 43.18287 -90.52971 2434 ft 128 kts 95°
2026-04-26 20:06 43.18209 -90.51733 2425 ft 127 kts 94°
2026-04-26 20:07 43.18214 -90.50534 2471 ft 124 kts 92°
2026-04-26 20:07 43.18229 -90.49283 2447 ft 135 kts 92°
2026-04-26 20:07 43.18248 -90.48006 2432 ft 129 kts 92°
2026-04-26 20:07 43.18271 -90.46771 2422 ft 128 kts 92°
2026-04-26 20:08 43.18300 -90.45592 2429 ft 121 kts 92°
2026-04-26 20:08 43.18330 -90.44423 2451 ft 128 kts 94°
2026-04-26 20:08 43.18375 -90.43184 2454 ft 132 kts 92°
2026-04-26 20:08 43.18387 -90.41943 2464 ft 132 kts 92°
2026-04-26 20:09 43.18411 -90.40655 2461 ft 137 kts 92°
2026-04-26 20:09 43.18439 -90.39349 2459 ft 137 kts 91°
2026-04-26 20:09 43.18478 -90.38027 2462 ft 141 kts 91°
2026-04-26 20:09 43.18488 -90.36706 2466 ft 134 kts 92°
2026-04-26 20:10 43.18506 -90.35427 2423 ft 132 kts 92°
2026-04-26 20:10 43.18471 -90.34182 2482 ft 130 kts 102°
2026-04-26 20:10 43.18232 -90.32909 2453 ft 142 kts 106°
2026-04-26 20:10 43.17988 -90.31595 2450 ft 142 kts 105°
2026-04-26 20:11 43.17738 -90.30327 2434 ft 131 kts 105°
2026-04-26 20:11 43.17517 -90.29149 2436 ft 126 kts 105°
2026-04-26 20:11 43.17282 -90.28005 2472 ft 125 kts 108°
2026-04-26 20:12 43.16923 -90.25725 2431 ft 122 kts 78°
2026-04-26 20:12 43.17233 -90.24640 2460 ft 124 kts 72°
2026-04-26 20:12 43.17652 -90.23580 2437 ft 127 kts 62°
2026-04-26 20:12 43.18145 -90.22595 2445 ft 124 kts 62°
2026-04-26 20:13 43.18623 -90.21600 2447 ft 133 kts 62°
2026-04-26 20:13 43.19114 -90.20496 2446 ft 137 kts 66°
2026-04-26 20:13 43.19567 -90.19282 2431 ft 148 kts 66°
2026-04-26 20:13 43.20045 -90.18061 2451 ft 143 kts 64°
2026-04-26 20:14 43.20484 -90.16863 2446 ft 140 kts 68°
2026-04-26 20:14 43.20933 -90.15634 2447 ft 145 kts 67°
2026-04-26 20:14 43.21381 -90.14415 2450 ft 143 kts 67°
2026-04-26 20:14 43.21834 -90.13192 2451 ft 145 kts 67°
2026-04-26 20:15 43.22290 -90.11973 2446 ft 141 kts 69°
2026-04-26 20:15 43.22723 -90.10757 2437 ft 143 kts 68°
2026-04-26 20:15 43.23165 -90.09550 2445 ft 139 kts 68°
2026-04-26 20:15 43.23614 -90.08363 2439 ft 143 kts 66°
2026-04-26 20:16 43.24075 -90.07127 2418 ft 146 kts 67°
2026-04-26 20:16 43.24541 -90.05902 2443 ft 145 kts 66°
2026-04-26 20:16 43.25001 -90.04686 2435 ft 142 kts 68°
2026-04-26 20:16 43.25458 -90.03473 2482 ft 146 kts 67°
2026-04-26 20:17 43.25931 -90.02214 2442 ft 146 kts 69°
2026-04-26 20:17 43.26403 -90.00983 2439 ft 144 kts 66°
2026-04-26 20:17 43.26867 -89.99791 2465 ft 141 kts 65°
2026-04-26 20:17 43.27182 -89.99005 2452 ft 142 kts 64°
2026-04-26 20:18 43.27792 -89.97381 2470 ft 143 kts 63°
2026-04-26 20:18 43.28273 -89.96210 2457 ft 139 kts 66°
2026-04-26 20:18 43.28744 -89.95049 2458 ft 139 kts 64°
2026-04-26 20:18 43.29214 -89.93883 2462 ft 144 kts 65°
2026-04-26 20:19 43.29709 -89.92650 2449 ft 149 kts 65°
2026-04-26 20:19 43.30202 -89.91415 2448 ft 144 kts 64°
2026-04-26 20:19 43.30700 -89.90255 2433 ft 139 kts 64°
2026-04-26 20:19 43.31183 -89.89119 2495 ft 139 kts 63°
2026-04-26 20:20 43.31669 -89.87987 2475 ft 134 kts 65°
2026-04-26 20:20 43.32155 -89.86851 2490 ft 142 kts 63°
2026-04-26 20:20 43.32644 -89.85715 2498 ft 137 kts 65°
2026-04-26 20:20 43.33118 -89.84564 2482 ft 134 kts 65°
2026-04-26 20:21 43.33560 -89.83469 2493 ft 132 kts 67°
2026-04-26 20:21 43.33795 -89.82330 2476 ft 125 kts 103°
2026-04-26 20:21 43.33471 -89.81261 2508 ft 120 kts 116°
2026-04-26 20:21 43.33116 -89.80211 2474 ft 121 kts 115°
2026-04-26 20:22 43.32766 -89.79180 2530 ft 120 kts 115°
2026-04-26 20:22 43.32391 -89.78085 2501 ft 131 kts 116°
2026-04-26 20:22 43.32013 -89.76970 2485 ft 129 kts 115°
2026-04-26 20:22 43.31636 -89.75884 2501 ft 123 kts 116°
2026-04-26 20:23 43.31260 -89.74802 2491 ft 125 kts 115°
2026-04-26 20:23 43.30893 -89.73746 2489 ft 121 kts 115°
2026-04-26 20:23 43.30532 -89.72697 2515 ft 123 kts 115°
2026-04-26 20:23 43.30158 -89.71628 2500 ft 125 kts 115°
2026-04-26 20:24 43.29793 -89.70558 2506 ft 128 kts 115°
2026-04-26 20:24 43.29405 -89.69450 2495 ft 126 kts 115°
2026-04-26 20:24 43.29035 -89.68377 2495 ft 124 kts 115°
2026-04-26 20:24 43.28666 -89.67313 2502 ft 124 kts 115°
2026-04-26 20:25 43.28289 -89.66229 2519 ft 125 kts 114°
2026-04-26 20:25 43.28040 -89.65495 2491 ft 131 kts 115°
2026-04-26 20:25 43.27537 -89.64050 2507 ft 123 kts 115°
2026-04-26 20:25 43.27166 -89.62977 2504 ft 125 kts 115°
2026-04-26 20:26 43.26798 -89.61913 2500 ft 122 kts 115°
2026-04-26 20:26 43.26431 -89.60857 2486 ft 124 kts 115°
2026-04-26 20:26 43.26074 -89.59803 2497 ft 121 kts 111°
2026-04-26 20:26 43.25778 -89.58709 2512 ft 127 kts 113°
2026-04-26 20:27 43.25451 -89.57584 2511 ft 128 kts 112°
2026-04-26 20:27 43.25118 -89.56463 2496 ft 124 kts 114°
2026-04-26 20:27 43.24796 -89.55386 2500 ft 119 kts 114°
2026-04-26 20:27 43.24484 -89.54346 2499 ft 119 kts 114°
2026-04-26 20:28 43.24167 -89.53290 2516 ft 123 kts 114°
2026-04-26 20:28 43.23831 -89.52190 2506 ft 124 kts 114°
2026-04-26 20:28 43.23506 -89.51098 2486 ft 124 kts 114°
2026-04-26 20:28 43.23175 -89.50016 2503 ft 124 kts 113°
2026-04-26 20:29 43.22840 -89.48907 2506 ft 128 kts 113°
2026-04-26 20:29 43.22499 -89.47774 2501 ft 128 kts 113°
2026-04-26 20:29 43.22162 -89.46661 2501 ft 126 kts 113°
2026-04-26 20:29 43.21826 -89.45543 2502 ft 132 kts 112°
2026-04-26 20:30 43.21470 -89.44371 2499 ft 134 kts 112°
2026-04-26 20:30 43.21115 -89.43202 2505 ft 134 kts 112°
2026-04-26 20:30 43.20747 -89.42054 2491 ft 127 kts 118°
2026-04-26 20:30 43.20182 -89.41182 2495 ft 119 kts 135°
2026-04-26 20:31 43.19602 -89.40436 2437 ft 108 kts 133°
2026-04-26 20:31 43.19116 -89.39761 2282 ft 91 kts 133°
2026-04-26 20:31 43.18679 -89.39195 2164 ft 83 kts 135°
2026-04-26 20:31 43.18262 -89.38673 2010 ft 79 kts 133°
2026-04-26 20:32 43.17856 -89.38124 1936 ft 85 kts 133°
2026-04-26 20:32 43.17438 -89.37588 1891 ft 81 kts 136°
2026-04-26 20:32 43.17036 -89.37068 1841 ft 79 kts 136°
2026-04-26 20:32 43.16639 -89.36543 1737 ft 79 kts 133°
2026-04-26 20:33 43.16226 -89.35998 1627 ft 80 kts 136°
2026-04-26 20:33 43.15806 -89.35476 1430 ft 86 kts 134°
2026-04-26 20:33 43.15438 -89.34891 1262 ft 86 kts 138°
2026-04-26 20:33 43.14995 -89.34405 1104 ft 78 kts 135°
2026-04-26 20:34 43.14610 -89.33919 894 ft 70 kts 134°
2026-04-26 20:34 43.14304 -89.33522 859 ft 51 kts 136°
2026-04-26 20:34 43.14080 -89.33232 867 ft 38 kts 136°
2026-04-26 20:34 43.13921 -89.33032 867 ft 24 kts 134°
2026-04-26 20:35 43.13816 -89.32893 865 ft 19 kts 136°
2026-04-26 20:35 43.13703 -89.32859 862 ft 16 kts 194°
2026-04-26 20:35 43.13679 -89.32867 862 ft 0 kts 196°
2026-04-26 20:35 43.13675 -89.32869 862 ft 5 kts 191°
2026-04-26 20:36 43.13589 -89.32899 863 ft 15 kts 184°
2026-04-26 20:36 43.13504 -89.32887 864 ft 11 kts 194°
2026-04-26 20:36 43.13432 -89.32884 857 ft 10 kts 154°
2026-04-26 20:36 43.13403 -89.32866 859 ft 0 kts 39°